Location: Austin
(30.3000°N, 97.7500°W)
Time: 02:52:02
(UTC-06:00)

Meteor 2-21 - Pass Details

Date: 20 November 2023
Orbit: 934 x 965 km, 82.5° (Epoch: 04 December)

Event Time Altitude Azimuth Distance (km) Brightness Sun altitude
Rises 17:56:55 0° 182° (S) 3,580 7.8 -5.8°
Reaches altitude 10° 17:59:23 10° 181° (S) 2,642 7.1 -6.3°
Maximum altitude 18:05:25 81° 95° (E) 957 4.4 -7.5°
Drops below altitude 10° 18:11:32 10° 8° (N) 2,675 6.6 -8.8°
Sets 18:14:02 0° 8° (N) 3,628 7.2 -9.3°
